This demonstration page uses our WeatherBlox Daily Observations layout. Learn more.

38.80484, -77.04692

Hourly Observations for November 30, 2019

Temp ( °F °C ) Dew Point ( °F °C ) Humidity (%) Winds ( mph kmh ) Pressure ( in mb ) Visibility ( mi km ) Precip ( " mm )
12:52 am 00:52 Cloudy 42 5.6 26 -3.3 53 53 N 10 17 30.14 1021 10 16.0934 0 0
1:52 am 01:52 Cloudy 42 5.6 26 -3.3 53 53 N 9 15 30.12 1020 10 16.0934 0 0
2:52 am 02:52 Cloudy 41 5 26 -3.3 55 55 N 7 11 30.11 1020 10 16.0934 0 0
3:52 am 03:52 Cloudy 41 5 26 -3.3 55 55 N 8 13 30.11 1020 10 16.0934 0 0
4:52 am 04:52 Cloudy 41 5 27 -2.8 57 57 N 9 15 30.09 1019 10 16.0934 0 0
5:52 am 05:52 Cloudy 41 5 25 -3.9 53 53 N 10 17 30.11 1020 10 16.0934 0 0
6:52 am 06:52 Cloudy 41 5 26 -3.3 55 55 N 7 11 30.09 1019 10 16.0934 0 0
7:52 am 07:52 Cloudy 41 5 26 -3.3 55 55 N 5 7 30.1 1019 10 16.0934 0 0
8:52 am 08:52 Cloudy 42 5.6 25 -3.9 51 51 NNW 8 13 30.14 1021 10 16.0934 0 0
9:52 am 09:52 Cloudy 43 6.1 24 -4.4 47 47 N 10 17 30.13 1020 10 16.0934 0 0
10:52 am 10:52 Cloudy 43 6.1 24 -4.4 47 47 ENE 3 6 30.12 1020 10 16.0934 0 0
1:52 pm 13:52 Cloudy 45 7.2 23 -5 42 42 Calm 30.03 1017 10 16.0934 0 0
2:52 pm 14:52 Cloudy 45 7.2 23 -5 42 42 ENE 3 6 30.02 1017 10 16.0934 0 0
3:52 pm 15:52 Cloudy 45 7.2 24 -4.4 44 44 NE 3 6 30.02 1017 10 16.0934 0 0
4:52 pm 16:52 Cloudy 45 7.2 25 -3.9 46 46 NE 5 7 30.03 1017 10 16.0934 0 0
5:52 pm 17:52 Cloudy 45 7.2 26 -3.3 48 48 S 5 7 30.02 1017 10 16.0934 0 0
6:52 pm 18:52 Cloudy 45 7.2 27 -2.8 49 49 Calm 30.02 1017 10 16.0934 0 0
7:52 pm 19:52 Cloudy 44 6.7 29 -1.7 55 55 ESE 7 11 30.02 1017 10 16.0934 0 0
8:52 pm 20:52 Cloudy 43 6.1 31 -0.6 63 63 SE 7 11 30.01 1016 10 16.0934 0 0
9:52 pm 21:52 Cloudy 43 6.1 30 -1.1 60 60 ESE 9 15 30 1016 10 16.0934 0 0
10:52 pm 22:52 Cloudy 43 6.1 30 -1.1 60 60 ESE 6 9 29.99 1016 10 16.0934 0 0
11:52 pm 23:52 Cloudy 43 6.1 30 -1.1 60 60 ESE 6 9 29.97 1015 10 16.0934 0 0

Powered by AerisWeather